This is the latest recevied weather packets stored in our database for station/object SQ9IWE-13. If no packets are shown the sender has not sent any weather packets the latest 10 day(s).
| Time | Temp. | Humidity | Pressure | Rain* | Wind** | Luminosity | Snow |
|---|---|---|---|---|---|---|---|
| 1777344002 | 3.33° C | 74% | 1020.8 hPa | - | - | - | - |
| 1777343401 | 3.33° C | 74% | 1020.7 hPa | - | - | - | - |
| 1777342801 | 3.89° C | 73% | 1020.8 hPa | - | - | - | - |
| 1777342201 | 3.89° C | 75% | 1020.6 hPa | - | - | - | - |
| 1777341601 | 3.89° C | 79% | 1020.6 hPa | - | - | - | - |
| 1777341001 | 3.89° C | 76% | 1020.5 hPa | - | - | - | - |
| 1777340401 | 4.44° C | 74% | 1020.6 hPa | - | - | - | - |
| 1777339801 | 4.44° C | 73% | 1020.5 hPa | - | - | - | - |
| 1777339201 | 4.44° C | 73% | 1020.5 hPa | - | - | - | - |
| 1777338601 | 31.11° C | 73% | - | - | - | - | - |
| 1777338001 | 5° C | 72% | 1020.4 hPa | - | - | - | - |
| 1777337401 | 5° C | 73% | 1020.5 hPa | - | - | - | - |
| 1777336801 | 5° C | 72% | 1020.4 hPa | - | - | - | - |
| 1777336201 | 5° C | 71% | 1020.5 hPa | - | - | - | - |
| 1777335601 | 5.56° C | 70% | 1020.4 hPa | - | - | - | - |
| 1777335001 | 5.56° C | 70% | 1020.4 hPa | - | - | - | - |
| 1777334401 | 5.56° C | 69% | 1020.5 hPa | - | - | - | - |
| 1777333201 | 5.56° C | 69% | 1020.5 hPa | - | - | - | - |
| 1777332601 | 5.56° C | 68% | 1020.6 hPa | - | - | - | - |
| 1777332001 | 5.56° C | 68% | 1020.5 hPa | - | - | - | - |
| 1777331401 | 5.56° C | 67% | 1020.6 hPa | - | - | - | - |
| 1777330801 | 5.56° C | 66% | 1020.5 hPa | - | - | - | - |
| 1777330201 | 5.56° C | 66% | 1020.4 hPa | - | - | - | - |
| 1777329601 | 5.56° C | 65% | 1020.4 hPa | - | - | - | - |
| 1777329001 | 5.56° C | 65% | 1020.5 hPa | - | - | - | - |
* Rain since midnight (hover to see other rain measurements)
** Current wind speed in m/s (hover to see current wind gust speed)